Location: Malvern Link
(52.1333°N, 2.3000°W)
Time: 04:54:41
(UTC+00:00)

Envisat - Pass Details

Date: 26 January 2022
Orbit: 764 x 765 km, 98.2° (Epoch: 25 May)

Event Time Altitude Azimuth Distance (km) Brightness Sun altitude
Rises 17:15:56 0° 205° (SSW) 3,220 7.1 -5.0°
Reaches altitude 10° 17:18:45 10° 221° (SW) 2,299 6.7 -5.4°
Maximum altitude 17:22:35 21° 270° (W) 1,655 5.8 -5.9°
Drops below altitude 10° 17:26:27 10° 320° (NW) 2,312 5.7 -6.5°
Sets 17:29:19 0° 336° (NNW) 3,244 6.3 -6.9°
